Notices

What's New in latest Release from April 7th, 2021:

- Updated Glossary, including Speed of Maximum Gust, and Total Hourly Precipitation

- Updated national and regional climate services offices contacts and prices information

- Addition of station inventory lists for 1981-2010, 1971-2000, and 1961-1990 Normals.

If you haven't already, please take our survey and provide feedback about our website: https://eccc.sondage-survey.ca/f/LanguageSelection.aspx?s=442ca660-fcf1-47c0-95a9-59707d6fd709

Hourly Data Report for December 02, 2003

TORONTO CITY
ONTARIO

43°40'00.000" N
79°24'00.000" W
112.50 m
6158355
71508
XTO

Download Data

Hourly Data (December 2003)
Hourly Data Report for December 2, 2003
TIME
LST
Temp Definition
°C
Dew Point Definition
°C
Rel Hum Definition
%
Precip. Amount Definition
mm

Wind Dir Definition
10's deg

Wind Spd Definition
km/h
Visibility Definition
km
Stn Press Definition
kPa
Hmdx Definition


Wind Chill Definition


Weather Definition


00:00 -1.5 -9.0 57   LegendMM LegendMM LegendMM 100.53     LegendNANA
01:00 -1.7 -7.9 63   LegendMM LegendMM LegendMM 100.55     LegendNANA
02:00 -2.0 -6.1 73   LegendMM LegendMM LegendMM 100.59     LegendNANA
03:00 -2.9 -4.3 90   LegendMM LegendMM LegendMM 100.66     LegendNANA
04:00 -3.0 -5.3 84   LegendMM LegendMM LegendMM 100.72     LegendNANA
05:00 -4.5 -6.4 87   LegendMM LegendMM LegendMM 100.83     LegendNANA
06:00 -4.9 -6.5 89   LegendMM LegendMM LegendMM 100.92     LegendNANA
07:00 -5.3 -7.1 87   LegendMM LegendMM LegendMM 101.06     LegendNANA
08:00 -6.7 -10.0 77   LegendMM LegendMM LegendMM 101.19     LegendNANA
09:00 -6.4 -10.4 73   LegendMM LegendMM LegendMM 101.28     LegendNANA
10:00 -6.3 -9.6 77   LegendMM LegendMM LegendMM 101.38     LegendNANA
11:00 -6.0 -10.5 70   LegendMM LegendMM LegendMM 101.43     LegendNANA
12:00 -5.8 -12.0 62   LegendMM LegendMM LegendMM 101.46     LegendNANA
13:00 -4.6 -10.9 61   LegendMM LegendMM LegendMM 101.49     LegendNANA
14:00 -5.2 -10.5 66   LegendMM LegendMM LegendMM 101.55     LegendNANA
15:00 -4.9 -10.2 66   LegendMM LegendMM LegendMM 101.60     LegendNANA
16:00 -4.9 -9.4 71   LegendMM LegendMM LegendMM 101.61     LegendNANA
17:00 -4.7 -8.7 74   LegendMM LegendMM LegendMM 101.64     LegendNANA
18:00 -4.4 -11.7 57   LegendMM LegendMM LegendMM 101.67     LegendNANA
19:00 -4.9 -12.0 57   LegendMM LegendMM LegendMM 101.72     LegendNANA
20:00 -5.2 -10.5 66   LegendMM LegendMM LegendMM 101.78     LegendNANA
21:00 -5.2 -8.9 75   LegendMM LegendMM LegendMM 101.82     LegendNANA
22:00 -5.6 -8.3 81   LegendMM LegendMM LegendMM 101.82     LegendNANA
23:00 -5.3 -8.0 81   LegendMM LegendMM LegendMM 101.86     LegendNANA

Notes on Data Quality.

Legend

  • E = Estimated
  • M = Missing
  • NA = Not Available*
  • [empty] = Indicates an unobserved value
Date modified: